Time,TemperatureF,DewpointF,PressureIn,WindDirection,WindDirectionDegrees,WindSpeedMPH,WindSpeedGustMPH,Humidity,HourlyPrecipIn,Conditions,Clouds,dailyrainin,SolarRadiationWatts/m^2,SoftwareType,DateUTC
2013-01-03 00:02:00,39.6,38.8,30.07,SSW,203,1.0,3.0,97,0.00,,,0.06,0.0,meteohub,2013-01-03 05:02:00,
2013-01-03 00:03:00,39.6,38.8,30.07,SSW,203,0.0,3.0,97,0.00,,,0.06,0.0,meteohub,2013-01-03 05:03:00,
2013-01-03 00:05:00,39.6,38.8,30.07,SSW,203,0.0,3.0,97,0.00,,,0.00,0.0,meteohub,2013-01-03 05:05:00,
2013-01-03 00:10:00,39.6,38.8,30.08,SSW,203,0.0,2.0,97,0.00,,,0.00,0.0,meteohub,2013-01-03 05:10:00,
2013-01-03 00:15:00,39.6,38.8,30.07,SSW,203,0.0,2.0,97,0.00,,,0.00,0.0,meteohub,2013-01-03 05:15:00,
2013-01-03 00:20:00,39.6,38.8,30.07,SSW,203,0.0,2.0,97,0.00,,,0.00,0.0,meteohub,2013-01-03 05:20:00,
2013-01-03 00:25:00,39.6,38.8,30.06,SSW,203,0.0,2.0,97,0.00,,,0.00,0.0,meteohub,2013-01-03 05:25:00,
2013-01-03 00:30:00,39.6,39.0,30.06,SSW,203,1.0,2.0,98,0.00,,,0.00,0.0,meteohub,2013-01-03 05:30:00,
2013-01-03 00:35:00,39.6,39.0,30.06,SSW,203,0.0,2.0,98,0.00,,,0.00,0.0,meteohub,2013-01-03 05:35:00,
2013-01-03 00:40:00,39.6,39.0,30.06,SSW,203,0.0,2.0,98,0.00,,,0.00,0.0,meteohub,2013-01-03 05:40:00,
2013-01-03 00:46:00,39.6,39.0,30.06,SSW,203,0.0,2.0,98,0.00,,,0.00,0.0,meteohub,2013-01-03 05:46:00,
2013-01-03 00:51:00,39.6,39.0,30.07,SSW,203,0.0,2.0,98,0.00,,,0.00,0.0,meteohub,2013-01-03 05:51:00,
2013-01-03 00:56:00,39.6,39.0,30.07,SSW,203,1.0,2.0,98,0.00,,,0.00,0.0,meteohub,2013-01-03 05:56:00,
2013-01-03 01:01:00,39.6,39.0,30.07,SSW,203,0.0,2.0,98,0.00,,,0.00,0.0,meteohub,2013-01-03 06:01:00,
2013-01-03 01:06:00,39.4,38.8,30.07,SSW,203,2.0,2.0,98,0.00,,,0.00,0.0,meteohub,2013-01-03 06:06:00,
2013-01-03 01:11:00,39.4,38.8,30.07,SSE,163,0.0,3.0,98,0.00,,,0.00,0.0,meteohub,2013-01-03 06:11:00,
2013-01-03 01:16:00,39.4,38.8,30.08,SSE,163,2.0,3.0,98,0.00,,,0.00,0.0,meteohub,2013-01-03 06:16:00,
2013-01-03 01:21:00,39.2,38.5,30.07,SSE,163,0.0,3.0,97,0.00,,,0.00,0.0,meteohub,2013-01-03 06:21:00,
2013-01-03 01:26:00,39.2,38.7,30.09,SSW,198,0.0,2.0,98,0.00,,,0.00,0.0,meteohub,2013-01-03 06:26:00,
2013-01-03 01:31:00,39.0,38.3,30.08,SSW,198,0.0,2.0,97,0.00,,,0.00,0.0,meteohub,2013-01-03 06:31:00,
2013-01-03 01:36:00,39.0,38.3,30.08,SSW,198,0.0,2.0,97,0.00,,,0.00,0.0,meteohub,2013-01-03 06:36:00,
2013-01-03 01:41:00,39.0,38.3,30.08,SSW,198,0.0,2.0,97,0.00,,,0.00,0.0,meteohub,2013-01-03 06:41:00,
2013-01-03 01:46:00,39.2,38.7,30.08,SSW,198,0.0,1.0,98,0.00,,,0.00,0.0,meteohub,2013-01-03 06:46:00,
2013-01-03 01:51:00,39.0,38.3,30.08,SSW,198,0.0,1.0,97,0.00,,,0.00,0.0,meteohub,2013-01-03 06:51:00,
2013-01-03 01:57:00,39.0,38.3,30.08,SSW,198,0.0,1.0,97,0.00,,,0.00,0.0,meteohub,2013-01-03 06:57:00,
2013-01-03 02:02:00,38.8,38.1,30.08,SSW,198,1.0,0.0,97,0.00,,,0.00,0.0,meteohub,2013-01-03 07:02:00,
2013-01-03 02:07:00,39.0,38.3,30.08,SSW,198,1.0,2.0,97,0.00,,,0.00,0.0,meteohub,2013-01-03 07:07:00,
2013-01-03 02:12:00,39.0,38.3,30.08,SSW,198,0.0,2.0,97,0.00,,,0.00,0.0,meteohub,2013-01-03 07:12:00,
2013-01-03 02:17:00,39.0,38.3,30.08,SSW,198,0.0,2.0,97,0.00,,,0.00,0.0,meteohub,2013-01-03 07:17:00,
2013-01-03 02:22:00,39.0,38.3,30.08,SSW,198,0.0,2.0,97,0.00,,,0.00,0.0,meteohub,2013-01-03 07:22:00,
2013-01-03 02:27:00,39.0,38.3,30.08,SSW,198,2.0,2.0,97,0.00,,,0.00,0.0,meteohub,2013-01-03 07:27:00,
2013-01-03 02:32:00,38.8,38.1,30.08,SSW,198,0.0,2.0,97,0.00,,,0.00,0.0,meteohub,2013-01-03 07:32:00,
2013-01-03 02:37:00,38.8,38.1,30.09,SSW,198,0.0,2.0,97,0.00,,,0.00,0.0,meteohub,2013-01-03 07:37:00,
2013-01-03 02:42:00,38.8,38.3,30.09,SSW,198,1.0,2.0,98,0.00,,,0.00,0.0,meteohub,2013-01-03 07:42:00,
2013-01-03 02:47:00,39.0,38.5,30.08,SE,140,2.0,2.0,98,0.00,,,0.00,0.0,meteohub,2013-01-03 07:47:00,
2013-01-03 02:52:00,39.0,38.5,30.08,SE,140,0.0,3.0,98,0.00,,,0.00,0.0,meteohub,2013-01-03 07:52:00,
2013-01-03 02:57:00,39.0,38.5,30.08,SSW,195,2.0,3.0,98,0.00,,,0.00,0.0,meteohub,2013-01-03 07:57:00,
2013-01-03 03:02:00,38.8,38.3,30.07,SSE,150,2.0,4.0,98,0.00,,,0.00,0.0,meteohub,2013-01-03 08:02:00,
2013-01-03 03:07:00,38.8,38.3,30.06,SSW,199,0.0,6.0,98,0.00,,,0.00,0.0,meteohub,2013-01-03 08:07:00,
2013-01-03 03:12:00,38.8,38.3,30.06,SW,216,3.0,6.0,98,0.00,,,0.00,0.0,meteohub,2013-01-03 08:12:00,
2013-01-03 03:17:00,38.7,38.1,30.06,East,85,0.0,6.0,98,0.00,,,0.00,0.0,meteohub,2013-01-03 08:17:00,
2013-01-03 03:22:00,38.8,38.3,30.07,SSW,205,0.0,6.0,98,0.00,,,0.00,0.0,meteohub,2013-01-03 08:22:00,
2013-01-03 03:27:00,38.8,38.3,30.06,SSW,208,1.0,6.0,98,0.00,,,0.00,0.0,meteohub,2013-01-03 08:27:00,
2013-01-03 03:32:00,38.7,38.1,30.07,SSE,153,1.0,4.0,98,0.00,,,0.00,0.0,meteohub,2013-01-03 08:32:00,
2013-01-03 03:37:00,38.7,38.1,30.06,South,178,0.0,4.0,98,0.00,,,0.00,0.0,meteohub,2013-01-03 08:37:00,
2013-01-03 03:42:00,38.7,38.1,30.07,SSW,201,0.0,4.0,98,0.00,,,0.00,0.0,meteohub,2013-01-03 08:42:00,
2013-01-03 03:48:00,38.5,37.9,30.08,SSW,204,0.0,4.0,98,0.00,,,0.00,0.0,meteohub,2013-01-03 08:48:00,
2013-01-03 03:53:00,38.7,38.1,30.06,SSW,204,0.0,2.0,98,0.00,,,0.00,0.0,meteohub,2013-01-03 08:53:00,
2013-01-03 03:58:00,38.7,38.1,30.07,SSW,204,0.0,2.0,98,0.00,,,0.00,0.0,meteohub,2013-01-03 08:58:00,
2013-01-03 04:03:00,38.7,38.1,30.06,SSW,204,0.0,2.0,98,0.00,,,0.00,0.0,meteohub,2013-01-03 09:03:00,
2013-01-03 04:08:00,38.7,38.1,30.06,WSW,244,0.0,2.0,98,0.00,,,0.00,0.0,meteohub,2013-01-03 09:08:00,
2013-01-03 04:13:00,38.7,38.1,30.07,WSW,244,2.0,4.0,98,0.00,,,0.00,0.0,meteohub,2013-01-03 09:13:00,
2013-01-03 04:18:00,38.5,37.9,30.07,WSW,244,0.0,4.0,98,0.00,,,0.00,0.0,meteohub,2013-01-03 09:18:00,
2013-01-03 04:23:00,38.5,37.9,30.08,WSW,244,1.0,4.0,98,0.00,,,0.00,0.0,meteohub,2013-01-03 09:23:00,
2013-01-03 04:28:00,38.3,37.8,30.08,WSW,244,0.0,2.0,98,0.00,,,0.00,0.0,meteohub,2013-01-03 09:28:00,
2013-01-03 04:33:00,38.3,37.8,30.07,WSW,244,2.0,2.0,98,0.00,,,0.00,0.0,meteohub,2013-01-03 09:33:00,
2013-01-03 04:38:00,38.1,37.6,30.07,South,174,0.0,2.0,98,0.00,,,0.00,0.0,meteohub,2013-01-03 09:38:00,
2013-01-03 04:43:00,38.1,37.6,30.07,South,174,0.0,2.0,98,0.00,,,0.00,0.0,meteohub,2013-01-03 09:43:00,
2013-01-03 04:48:00,37.9,37.4,30.07,South,174,1.0,2.0,98,0.00,,,0.00,0.0,meteohub,2013-01-03 09:48:00,
2013-01-03 04:54:00,37.9,37.4,30.07,South,174,1.0,3.0,98,0.00,,,0.00,0.0,meteohub,2013-01-03 09:54:00,
2013-01-03 04:59:00,37.9,37.4,30.07,WSW,248,2.0,3.0,98,0.00,,,0.00,0.0,meteohub,2013-01-03 09:59:00,
2013-01-03 05:04:00,37.9,37.4,30.07,WSW,246,0.0,3.0,98,0.00,,,0.00,0.0,meteohub,2013-01-03 10:04:00,
2013-01-03 05:09:00,38.1,37.6,30.07,WSW,246,0.0,3.0,98,0.00,,,0.00,0.0,meteohub,2013-01-03 10:09:00,
2013-01-03 05:14:00,38.1,37.6,30.08,WSW,246,2.0,3.0,98,0.00,,,0.00,0.0,meteohub,2013-01-03 10:14:00,
2013-01-03 05:19:00,38.1,37.6,30.08,WSW,246,0.0,3.0,98,0.00,,,0.00,0.0,meteohub,2013-01-03 10:19:00,
2013-01-03 05:24:00,38.1,37.6,30.09,WSW,246,0.0,3.0,98,0.00,,,0.00,0.0,meteohub,2013-01-03 10:24:00,
2013-01-03 05:29:00,38.3,37.8,30.08,WSW,246,0.0,3.0,98,0.00,,,0.00,0.0,meteohub,2013-01-03 10:29:00,
2013-01-03 05:34:00,38.3,37.8,30.08,WSW,246,1.0,2.0,98,0.00,,,0.00,0.0,meteohub,2013-01-03 10:34:00,
2013-01-03 05:39:00,38.3,37.8,30.08,WSW,246,0.0,2.0,98,0.00,,,0.00,0.0,meteohub,2013-01-03 10:39:00,
2013-01-03 05:45:00,38.1,37.6,30.08,WSW,243,1.0,2.0,98,0.00,,,0.00,0.0,meteohub,2013-01-03 10:45:00,
2013-01-03 05:50:00,38.3,37.8,30.09,WSW,243,0.0,3.0,98,0.00,,,0.00,0.0,meteohub,2013-01-03 10:50:00,
2013-01-03 05:55:00,38.3,37.8,30.08,WSW,243,0.0,3.0,98,0.00,,,0.00,0.0,meteohub,2013-01-03 10:55:00,
2013-01-03 06:00:00,38.1,37.6,30.08,SW,227,0.0,3.0,98,0.00,,,0.00,0.0,meteohub,2013-01-03 11:00:00,
2013-01-03 06:05:00,38.1,37.6,30.08,SSW,205,1.0,3.0,98,0.00,,,0.00,0.0,meteohub,2013-01-03 11:05:00,
2013-01-03 06:10:00,38.3,37.8,30.08,SSW,205,0.0,3.0,98,0.00,,,0.00,0.0,meteohub,2013-01-03 11:10:00,
2013-01-03 06:15:00,38.5,37.9,30.08,SSW,205,1.0,3.0,98,0.00,,,0.00,0.0,meteohub,2013-01-03 11:15:00,
2013-01-03 06:20:00,38.3,37.8,30.08,SSW,205,2.0,3.0,98,0.00,,,0.00,0.0,meteohub,2013-01-03 11:20:00,
2013-01-03 06:25:00,38.3,37.8,30.09,SSW,205,0.0,2.0,98,0.00,,,0.00,0.0,meteohub,2013-01-03 11:25:00,
2013-01-03 06:30:00,38.5,37.9,30.09,SSW,205,1.0,2.0,98,0.00,,,0.00,0.0,meteohub,2013-01-03 11:30:00,
2013-01-03 06:35:00,38.3,37.8,30.09,SSW,205,1.0,2.0,98,0.00,,,0.00,0.0,meteohub,2013-01-03 11:35:00,
2013-01-03 06:40:00,38.3,37.8,30.09,SSW,205,0.0,2.0,98,0.00,,,0.00,0.0,meteohub,2013-01-03 11:40:00,
2013-01-03 06:45:00,38.3,37.8,30.09,SSW,205,0.0,2.0,98,0.00,,,0.00,0.0,meteohub,2013-01-03 11:45:00,
2013-01-03 06:50:00,38.3,37.8,30.09,SSW,205,1.0,2.0,98,0.00,,,0.00,0.0,meteohub,2013-01-03 11:50:00,
2013-01-03 06:55:00,38.1,37.6,30.09,SSW,205,0.0,2.0,98,0.00,,,0.00,0.0,meteohub,2013-01-03 11:55:00,
2013-01-03 07:00:00,38.3,37.8,30.09,SSW,211,0.0,2.0,98,0.00,,,0.00,0.0,meteohub,2013-01-03 12:00:00,
2013-01-03 07:05:00,38.1,37.6,30.09,SSW,207,0.0,2.0,98,0.00,,,0.00,0.0,meteohub,2013-01-03 12:05:00,
2013-01-03 07:10:00,38.1,37.6,30.09,SSW,208,0.0,2.0,98,0.00,,,0.00,0.0,meteohub,2013-01-03 12:10:00,
2013-01-03 07:15:00,37.9,37.4,30.09,SSW,208,0.0,2.0,98,0.00,,,0.00,0.0,meteohub,2013-01-03 12:15:00,
2013-01-03 07:21:00,37.9,37.4,30.09,SSW,208,0.0,2.0,98,0.00,,,0.00,0.0,meteohub,2013-01-03 12:21:00,
2013-01-03 07:26:00,37.9,37.4,30.10,SSW,208,1.0,2.0,98,0.00,,,0.00,0.0,meteohub,2013-01-03 12:26:00,
2013-01-03 07:31:00,37.9,37.4,30.10,SSW,208,0.0,2.0,98,0.00,,,0.00,0.0,meteohub,2013-01-03 12:31:00,
2013-01-03 07:36:00,37.9,37.4,30.09,SSW,208,0.0,2.0,98,0.00,,,0.00,0.0,meteohub,2013-01-03 12:36:00,
2013-01-03 07:41:00,37.9,37.4,30.11,SSW,208,1.0,1.0,98,0.00,,,0.00,0.0,meteohub,2013-01-03 12:41:00,
2013-01-03 07:46:00,37.8,37.2,30.10,SSW,208,0.0,2.0,98,0.00,,,0.00,0.0,meteohub,2013-01-03 12:46:00,
2013-01-03 07:51:00,37.8,37.2,30.10,SSW,208,0.0,2.0,98,0.00,,,0.00,0.0,meteohub,2013-01-03 12:51:00,
2013-01-03 07:56:00,37.8,37.2,30.11,SSW,208,0.0,2.0,98,0.00,,,0.00,0.0,meteohub,2013-01-03 12:56:00,
2013-01-03 08:01:00,37.8,37.2,30.12,SSW,208,0.0,1.0,98,0.00,,,0.00,5.0,meteohub,2013-01-03 13:01:00,
2013-01-03 08:06:00,37.8,37.2,30.11,SSW,208,0.0,0.0,98,0.00,,,0.00,7.0,meteohub,2013-01-03 13:06:00,
2013-01-03 08:11:00,37.9,37.4,30.11,SSW,208,0.0,1.0,98,0.00,,,0.00,9.0,meteohub,2013-01-03 13:11:00,
2013-01-03 08:16:00,38.1,37.6,30.11,SSW,208,0.0,1.0,98,0.00,,,0.00,16.0,meteohub,2013-01-03 13:16:00,
2013-01-03 08:22:00,37.9,37.4,30.11,SSW,208,0.0,1.0,98,0.00,,,0.00,12.0,meteohub,2013-01-03 13:22:00,
2013-01-03 08:27:00,37.9,37.4,30.12,SSW,208,0.0,2.0,98,0.00,,,0.00,16.0,meteohub,2013-01-03 13:27:00,
2013-01-03 08:32:00,38.1,37.6,30.12,SSW,208,0.0,2.0,98,0.00,,,0.00,23.0,meteohub,2013-01-03 13:32:00,
2013-01-03 08:37:00,37.9,37.4,30.11,SSW,208,0.0,2.0,98,0.00,,,0.00,21.0,meteohub,2013-01-03 13:37:00,
2013-01-03 08:42:00,37.9,37.4,30.10,SSW,208,0.0,2.0,98,0.00,,,0.00,26.0,meteohub,2013-01-03 13:42:00,
2013-01-03 08:47:00,38.1,37.6,30.11,SSW,208,0.0,2.0,98,0.00,,,0.00,30.0,meteohub,2013-01-03 13:47:00,
2013-01-03 08:52:00,37.9,37.4,30.11,SSW,208,0.0,2.0,98,0.00,,,0.00,39.0,meteohub,2013-01-03 13:52:00,
2013-01-03 08:57:00,37.9,37.4,30.10,SSW,208,0.0,2.0,98,0.00,,,0.00,35.0,meteohub,2013-01-03 13:57:00,
2013-01-03 09:02:00,38.1,37.6,30.11,SSW,208,1.0,1.0,98,0.00,,,0.00,40.0,meteohub,2013-01-03 14:02:00,
2013-01-03 09:07:00,37.9,37.4,30.12,SSW,208,0.0,2.0,98,0.00,,,0.00,42.0,meteohub,2013-01-03 14:07:00,
2013-01-03 09:12:00,37.9,37.4,30.12,SSW,208,0.0,2.0,98,0.00,,,0.00,56.0,meteohub,2013-01-03 14:12:00,
2013-01-03 09:17:00,37.8,37.2,30.12,SSW,208,0.0,2.0,98,0.00,,,0.00,72.0,meteohub,2013-01-03 14:17:00,
2013-01-03 09:22:00,37.9,37.4,30.11,SSW,208,0.0,2.0,98,0.00,,,0.00,93.0,meteohub,2013-01-03 14:22:00,
2013-01-03 09:27:00,38.3,37.8,30.12,SSW,208,0.0,2.0,98,0.00,,,0.00,93.0,meteohub,2013-01-03 14:27:00,
2013-01-03 09:32:00,38.5,37.9,30.12,SSW,208,0.0,2.0,98,0.00,,,0.00,91.0,meteohub,2013-01-03 14:32:00,
2013-01-03 09:37:00,38.7,38.1,30.12,SSW,208,0.0,2.0,98,0.00,,,0.00,90.0,meteohub,2013-01-03 14:37:00,
2013-01-03 09:42:00,38.7,38.1,30.12,SSW,208,1.0,2.0,98,0.00,,,0.00,79.0,meteohub,2013-01-03 14:42:00,
2013-01-03 09:47:00,38.5,37.9,30.13,SSW,208,0.0,2.0,98,0.00,,,0.00,58.0,meteohub,2013-01-03 14:47:00,
2013-01-03 09:52:00,38.7,38.1,30.13,SSW,208,0.0,2.0,98,0.00,,,0.00,56.0,meteohub,2013-01-03 14:52:00,
2013-01-03 09:57:00,38.7,38.1,30.12,SSW,208,0.0,2.0,98,0.00,,,0.00,72.0,meteohub,2013-01-03 14:57:00,
2013-01-03 10:02:00,38.7,38.1,30.13,SE,124,2.0,2.0,98,0.00,,,0.00,83.0,meteohub,2013-01-03 15:02:00,
2013-01-03 10:07:00,38.8,38.3,30.12,SE,124,0.0,2.0,98,0.00,,,0.00,98.0,meteohub,2013-01-03 15:07:00,
2013-01-03 10:12:00,38.8,38.1,30.13,SE,124,2.0,2.0,97,0.00,,,0.00,93.0,meteohub,2013-01-03 15:12:00,
2013-01-03 10:17:00,38.8,38.1,30.13,ESE,123,0.0,2.0,97,0.00,,,0.00,102.0,meteohub,2013-01-03 15:17:00,
2013-01-03 10:22:00,38.8,37.8,30.13,ESE,123,0.0,2.0,96,0.00,,,0.00,120.0,meteohub,2013-01-03 15:22:00,
2013-01-03 10:28:00,39.4,38.3,30.13,ESE,123,0.0,2.0,96,0.00,,,0.00,162.0,meteohub,2013-01-03 15:28:00,
2013-01-03 10:33:00,39.6,37.9,30.13,ESE,120,0.0,2.0,94,0.00,,,0.00,167.0,meteohub,2013-01-03 15:33:00,
2013-01-03 10:38:00,39.6,37.9,30.13,ESE,119,2.0,2.0,94,0.00,,,0.00,158.0,meteohub,2013-01-03 15:38:00,
2013-01-03 10:43:00,39.7,38.5,30.14,ESE,120,2.0,3.0,95,0.00,,,0.00,160.0,meteohub,2013-01-03 15:43:00,
2013-01-03 10:48:00,40.3,38.7,30.13,SSE,161,0.0,3.0,94,0.00,,,0.00,163.0,meteohub,2013-01-03 15:48:00,
2013-01-03 10:53:00,39.9,38.7,30.13,SE,134,2.0,3.0,95,0.00,,,0.00,148.0,meteohub,2013-01-03 15:53:00,
2013-01-03 10:58:00,39.0,37.8,30.14,East,85,2.0,3.0,95,0.00,,,0.00,141.0,meteohub,2013-01-03 15:58:00,
2013-01-03 11:03:00,38.8,37.6,30.14,East,86,1.0,3.0,95,0.00,,,0.00,179.0,meteohub,2013-01-03 16:03:00,
2013-01-03 11:08:00,39.0,37.9,30.14,SE,140,2.0,3.0,96,0.00,,,0.00,190.0,meteohub,2013-01-03 16:08:00,
2013-01-03 11:13:00,38.8,37.6,30.13,East,87,2.0,3.0,95,0.00,,,0.00,183.0,meteohub,2013-01-03 16:13:00,
2013-01-03 11:18:00,38.3,37.0,30.13,East,101,2.0,3.0,95,0.00,,,0.00,227.0,meteohub,2013-01-03 16:18:00,
2013-01-03 11:23:00,38.8,37.8,30.13,SE,136,0.0,3.0,96,0.00,,,0.00,204.0,meteohub,2013-01-03 16:23:00,
2013-01-03 11:28:00,38.8,37.6,30.13,SE,130,0.0,3.0,95,0.00,,,0.00,211.0,meteohub,2013-01-03 16:28:00,
2013-01-03 11:33:00,39.4,38.3,30.12,ESE,123,1.0,4.0,96,0.00,,,0.00,200.0,meteohub,2013-01-03 16:33:00,
2013-01-03 11:38:00,38.8,37.6,30.12,East,89,0.0,4.0,95,0.00,,,0.00,213.0,meteohub,2013-01-03 16:38:00,
2013-01-03 11:44:00,38.5,36.9,30.12,East,99,1.0,4.0,94,0.00,,,0.00,220.0,meteohub,2013-01-03 16:44:00,
2013-01-03 11:49:00,38.5,36.9,30.12,SE,129,0.0,3.0,94,0.00,,,0.00,181.0,meteohub,2013-01-03 16:49:00,
2013-01-03 11:54:00,39.0,37.4,30.12,East,91,1.0,4.0,94,0.00,,,0.00,200.0,meteohub,2013-01-03 16:54:00,
2013-01-03 11:59:00,39.4,37.6,30.12,ESE,117,1.0,4.0,93,0.00,,,0.00,223.0,meteohub,2013-01-03 16:59:00,
2013-01-03 12:04:00,39.7,38.1,30.12,SSE,159,1.0,4.0,94,0.00,,,0.00,236.0,meteohub,2013-01-03 17:04:00,
2013-01-03 12:09:00,39.6,37.9,30.12,ESE,123,0.0,3.0,94,0.00,,,0.00,211.0,meteohub,2013-01-03 17:09:00,
2013-01-03 12:14:00,39.7,37.6,30.12,South,170,0.0,3.0,92,0.00,,,0.00,185.0,meteohub,2013-01-03 17:14:00,
2013-01-03 12:19:00,39.6,37.4,30.12,SSW,198,3.0,3.0,92,0.00,,,0.00,267.0,meteohub,2013-01-03 17:19:00,
2013-01-03 12:24:00,39.9,37.8,30.11,SSW,196,0.0,3.0,92,0.00,,,0.00,214.0,meteohub,2013-01-03 17:24:00,
2013-01-03 12:29:00,40.3,38.1,30.11,ESE,113,0.0,3.0,92,0.00,,,0.00,148.0,meteohub,2013-01-03 17:29:00,
2013-01-03 12:34:00,40.3,38.1,30.11,ESE,113,0.0,3.0,92,0.00,,,0.00,183.0,meteohub,2013-01-03 17:34:00,
2013-01-03 12:39:00,40.5,38.7,30.11,SSW,205,1.0,3.0,93,0.00,,,0.00,158.0,meteohub,2013-01-03 17:39:00,
2013-01-03 12:44:00,40.6,38.5,30.11,SSW,205,0.0,4.0,92,0.00,,,0.00,123.0,meteohub,2013-01-03 17:44:00,
2013-01-03 12:49:00,40.3,38.1,30.11,SSW,205,1.0,4.0,92,0.00,,,0.00,104.0,meteohub,2013-01-03 17:49:00,
2013-01-03 12:55:00,39.7,37.9,30.11,SSW,209,0.0,4.0,93,0.00,,,0.00,97.0,meteohub,2013-01-03 17:55:00,
2013-01-03 13:00:00,40.1,37.9,30.10,SSW,209,0.0,2.0,92,0.00,,,0.00,79.0,meteohub,2013-01-03 18:00:00,
2013-01-03 13:05:00,39.7,37.6,30.10,South,173,1.0,3.0,92,0.00,,,0.00,76.0,meteohub,2013-01-03 18:05:00,
2013-01-03 13:10:00,39.7,37.9,30.10,South,174,0.0,3.0,93,0.00,,,0.00,98.0,meteohub,2013-01-03 18:10:00,
2013-01-03 13:15:00,39.7,37.9,30.10,South,174,0.0,3.0,93,0.00,,,0.00,69.0,meteohub,2013-01-03 18:15:00,
2013-01-03 13:20:00,39.4,37.6,30.09,ESE,116,0.0,2.0,93,0.00,,,0.00,84.0,meteohub,2013-01-03 18:20:00,
2013-01-03 13:25:00,39.4,37.6,30.09,SE,142,2.0,3.0,93,0.00,,,0.00,137.0,meteohub,2013-01-03 18:25:00,
2013-01-03 13:30:00,39.4,37.6,30.09,SE,130,1.0,3.0,93,0.00,,,0.00,149.0,meteohub,2013-01-03 18:30:00,
2013-01-03 13:35:00,39.6,37.8,30.09,SE,144,1.0,3.0,93,0.00,,,0.00,158.0,meteohub,2013-01-03 18:35:00,
2013-01-03 13:40:00,40.3,38.7,30.09,SSE,167,0.0,3.0,94,0.00,,,0.00,167.0,meteohub,2013-01-03 18:40:00,
2013-01-03 13:45:00,39.7,37.9,30.09,South,175,1.0,3.0,93,0.00,,,0.00,160.0,meteohub,2013-01-03 18:45:00,
2013-01-03 13:51:00,39.9,38.1,30.09,South,175,2.0,3.0,93,0.00,,,0.00,193.0,meteohub,2013-01-03 18:51:00,
2013-01-03 13:56:00,40.3,38.5,30.09,South,175,2.0,2.0,93,0.00,,,0.00,162.0,meteohub,2013-01-03 18:56:00,
2013-01-03 14:01:00,40.3,38.5,30.09,South,180,0.0,2.0,93,0.00,,,0.00,153.0,meteohub,2013-01-03 19:01:00,
2013-01-03 14:06:00,40.8,39.0,30.10,SSW,204,0.0,4.0,93,0.00,,,0.00,118.0,meteohub,2013-01-03 19:06:00,
2013-01-03 14:11:00,40.5,38.3,30.10,SSW,207,0.0,4.0,92,0.00,,,0.00,56.0,meteohub,2013-01-03 19:11:00,
2013-01-03 14:16:00,40.3,38.5,30.10,SE,135,1.0,4.0,93,0.00,,,0.00,102.0,meteohub,2013-01-03 19:16:00,
2013-01-03 14:53:00,40.3,38.7,30.10,SSW,198,1.0,2.0,94,0.00,,,0.00,151.0,meteohub,2013-01-03 19:53:00,
2013-01-03 14:59:00,40.5,38.8,30.10,SSW,198,1.0,2.0,94,0.00,,,0.00,86.0,meteohub,2013-01-03 19:59:00,
2013-01-03 15:04:00,40.1,38.5,30.11,South,190,1.0,2.0,94,0.00,,,0.00,69.0,meteohub,2013-01-03 20:04:00,
2013-01-03 15:09:00,39.6,38.3,30.10,South,190,0.0,2.0,95,0.00,,,0.00,114.0,meteohub,2013-01-03 20:09:00,
2013-01-03 15:14:00,39.6,38.3,30.11,South,190,0.0,2.0,95,0.00,,,0.00,69.0,meteohub,2013-01-03 20:14:00,
2013-01-03 15:19:00,39.6,38.3,30.11,South,190,1.0,2.0,95,0.00,,,0.00,114.0,meteohub,2013-01-03 20:19:00,
2013-01-03 15:24:00,39.7,38.5,30.11,South,182,2.0,3.0,95,0.00,,,0.00,127.0,meteohub,2013-01-03 20:24:00,
2013-01-03 15:29:00,39.9,38.3,30.12,SSE,154,0.0,4.0,94,0.00,,,0.00,93.0,meteohub,2013-01-03 20:29:00,
2013-01-03 15:34:00,39.7,38.1,30.12,SE,136,0.0,4.0,94,0.00,,,0.00,100.0,meteohub,2013-01-03 20:34:00,
2013-01-03 15:39:00,39.6,37.9,30.13,ESE,103,1.0,4.0,94,0.00,,,0.00,90.0,meteohub,2013-01-03 20:39:00,
2013-01-03 15:44:00,39.6,37.8,30.13,SE,124,1.0,3.0,93,0.00,,,0.00,84.0,meteohub,2013-01-03 20:44:00,
2013-01-03 15:49:00,39.4,37.6,30.13,East,80,1.0,3.0,93,0.00,,,0.00,88.0,meteohub,2013-01-03 20:49:00,
2013-01-03 15:55:00,39.2,37.0,30.13,SE,135,1.0,3.0,92,0.00,,,0.00,91.0,meteohub,2013-01-03 20:55:00,
2013-01-03 16:00:00,39.0,36.9,30.13,ESE,103,0.0,3.0,92,0.00,,,0.00,93.0,meteohub,2013-01-03 21:00:00,
2013-01-03 16:05:00,39.0,36.9,30.14,ESE,104,1.0,3.0,92,0.00,,,0.00,90.0,meteohub,2013-01-03 21:05:00,
2013-01-03 16:10:00,39.0,36.9,30.14,ESE,104,0.0,3.0,92,0.00,,,0.00,88.0,meteohub,2013-01-03 21:10:00,
2013-01-03 16:15:00,39.0,36.7,30.14,SE,130,0.0,3.0,91,0.00,,,0.00,83.0,meteohub,2013-01-03 21:15:00,
2013-01-03 16:20:00,38.7,36.3,30.14,SE,132,0.0,3.0,91,0.00,,,0.00,69.0,meteohub,2013-01-03 21:20:00,
2013-01-03 16:25:00,38.3,36.0,30.15,East,84,0.0,3.0,91,0.00,,,0.00,63.0,meteohub,2013-01-03 21:25:00,
2013-01-03 16:30:00,38.3,36.1,30.15,East,93,1.0,2.0,92,0.00,,,0.00,63.0,meteohub,2013-01-03 21:30:00,
2013-01-03 16:35:00,37.9,35.8,30.15,East,100,0.0,2.0,92,0.00,,,0.00,49.0,meteohub,2013-01-03 21:35:00,
2013-01-03 16:40:00,37.9,35.8,30.15,East,100,1.0,3.0,92,0.00,,,0.00,47.0,meteohub,2013-01-03 21:40:00,
2013-01-03 16:45:00,37.8,35.6,30.15,East,100,0.0,3.0,92,0.00,,,0.00,40.0,meteohub,2013-01-03 21:45:00,
2013-01-03 16:50:00,37.4,35.2,30.15,East,100,0.0,2.0,92,0.00,,,0.00,23.0,meteohub,2013-01-03 21:50:00,
2013-01-03 16:56:00,37.2,35.4,30.15,East,100,1.0,2.0,93,0.00,,,0.00,16.0,meteohub,2013-01-03 21:56:00,
2013-01-03 17:01:00,37.0,34.9,30.15,East,100,1.0,2.0,92,0.00,,,0.00,12.0,meteohub,2013-01-03 22:01:00,
2013-01-03 17:06:00,36.7,34.9,30.16,East,100,0.0,2.0,93,0.00,,,0.00,11.0,meteohub,2013-01-03 22:06:00,
2013-01-03 17:11:00,36.3,34.5,30.16,East,100,0.0,2.0,93,0.00,,,0.00,9.0,meteohub,2013-01-03 22:11:00,
2013-01-03 17:16:00,36.1,34.5,30.16,East,100,1.0,2.0,94,0.00,,,0.00,9.0,meteohub,2013-01-03 22:16:00,
2013-01-03 17:21:00,35.8,34.2,30.16,East,100,0.0,2.0,94,0.00,,,0.00,7.0,meteohub,2013-01-03 22:21:00,
2013-01-03 17:26:00,35.4,33.8,30.16,East,100,0.0,2.0,94,0.00,,,0.00,5.0,meteohub,2013-01-03 22:26:00,
2013-01-03 17:31:00,35.2,33.6,30.17,East,100,0.0,2.0,94,0.00,,,0.00,0.0,meteohub,2013-01-03 22:31:00,
2013-01-03 17:36:00,34.9,33.3,30.17,East,100,0.0,2.0,94,0.00,,,0.00,0.0,meteohub,2013-01-03 22:36:00,
2013-01-03 17:41:00,34.5,32.9,30.17,East,100,0.0,2.0,94,0.00,,,0.00,0.0,meteohub,2013-01-03 22:41:00,
2013-01-03 17:46:00,34.3,33.1,30.17,East,100,1.0,2.0,95,0.00,,,0.00,0.0,meteohub,2013-01-03 22:46:00,
2013-01-03 17:51:00,34.2,32.9,30.18,East,100,1.0,2.0,95,0.00,,,0.00,0.0,meteohub,2013-01-03 22:51:00,
2013-01-03 17:57:00,34.0,32.7,30.19,East,100,1.0,2.0,95,0.00,,,0.00,0.0,meteohub,2013-01-03 22:57:00,
2013-01-03 18:02:00,34.0,32.7,30.19,East,100,1.0,3.0,95,0.00,,,0.00,0.0,meteohub,2013-01-03 23:02:00,
2013-01-03 18:07:00,34.0,32.7,30.19,East,100,0.0,3.0,95,0.00,,,0.00,0.0,meteohub,2013-01-03 23:07:00,
2013-01-03 18:12:00,33.6,32.4,30.19,East,100,0.0,3.0,95,0.00,,,0.00,0.0,meteohub,2013-01-03 23:12:00,
2013-01-03 18:17:00,33.6,32.5,30.19,East,100,1.0,2.0,96,0.00,,,0.00,0.0,meteohub,2013-01-03 23:17:00,
2013-01-03 18:22:00,33.4,32.2,30.19,East,100,2.0,2.0,95,0.00,,,0.00,0.0,meteohub,2013-01-03 23:22:00,
2013-01-03 18:27:00,33.3,32.2,30.19,East,100,2.0,3.0,96,0.00,,,0.00,0.0,meteohub,2013-01-03 23:27:00,
2013-01-03 18:32:00,33.3,32.2,30.19,NNE,14,2.0,3.0,96,0.00,,,0.00,0.0,meteohub,2013-01-03 23:32:00,
2013-01-03 18:37:00,33.3,32.2,30.19,NNE,15,2.0,3.0,96,0.00,,,0.00,0.0,meteohub,2013-01-03 23:37:00,
2013-01-03 18:42:00,33.3,32.2,30.20,NNE,31,3.0,3.0,96,0.00,,,0.00,0.0,meteohub,2013-01-03 23:42:00,
2013-01-03 18:47:00,33.3,32.0,30.20,NNE,22,2.0,4.0,95,0.00,,,0.00,0.0,meteohub,2013-01-03 23:47:00,
2013-01-03 18:52:00,33.3,32.0,30.20,NNE,22,1.0,4.0,95,0.00,,,0.00,0.0,meteohub,2013-01-03 23:52:00,
2013-01-03 18:57:00,33.4,31.3,30.20,NNE,33,0.0,4.0,92,0.00,,,0.00,0.0,meteohub,2013-01-03 23:57:00,
2013-01-03 19:02:00,33.3,31.1,30.20,NNE,28,1.0,3.0,92,0.00,,,0.00,0.0,meteohub,2013-01-04 00:02:00,
2013-01-03 19:07:00,33.4,31.1,30.20,NE,49,2.0,3.0,91,0.00,,,0.00,0.0,meteohub,2013-01-04 00:07:00,
2013-01-03 19:12:00,33.4,30.6,30.20,NE,54,2.0,4.0,89,0.00,,,0.00,0.0,meteohub,2013-01-04 00:12:00,
2013-01-03 19:17:00,33.4,30.2,30.21,NE,54,1.0,4.0,88,0.00,,,0.00,0.0,meteohub,2013-01-04 00:17:00,
2013-01-03 19:22:00,33.1,29.8,30.21,NE,54,0.0,4.0,88,0.00,,,0.00,0.0,meteohub,2013-01-04 00:22:00,
2013-01-03 19:27:00,33.1,29.8,30.21,NE,46,2.0,3.0,88,0.00,,,0.00,0.0,meteohub,2013-01-04 00:27:00,
2013-01-03 19:32:00,33.1,29.8,30.22,NE,46,1.0,4.0,88,0.00,,,0.00,0.0,meteohub,2013-01-04 00:32:00,
2013-01-03 19:37:00,32.7,29.8,30.22,NE,46,0.0,4.0,89,0.00,,,0.00,0.0,meteohub,2013-01-04 00:37:00,
2013-01-03 19:42:00,32.5,29.7,30.22,NE,46,2.0,4.0,89,0.00,,,0.00,0.0,meteohub,2013-01-04 00:42:00,
2013-01-03 19:47:00,32.4,29.8,30.22,NE,41,1.0,3.0,90,0.00,,,0.00,0.0,meteohub,2013-01-04 00:47:00,
2013-01-03 19:52:00,32.2,29.7,30.22,NE,41,0.0,3.0,90,0.00,,,0.00,0.0,meteohub,2013-01-04 00:52:00,
2013-01-03 19:57:00,32.2,29.7,30.22,NNE,32,0.0,4.0,90,0.00,,,0.00,0.0,meteohub,2013-01-04 00:57:00,
2013-01-03 20:02:00,32.0,29.1,30.22,NE,36,0.0,4.0,89,0.00,,,0.00,0.0,meteohub,2013-01-04 01:02:00,
2013-01-03 20:07:00,31.8,29.3,30.22,NE,36,1.0,4.0,90,0.00,,,0.00,0.0,meteohub,2013-01-04 01:07:00,
2013-01-03 20:12:00,31.6,29.1,30.22,NE,36,0.0,3.0,90,0.00,,,0.00,0.0,meteohub,2013-01-04 01:12:00,
2013-01-03 20:17:00,31.6,28.8,30.22,WNW,299,0.0,2.0,89,0.00,,,0.00,0.0,meteohub,2013-01-04 01:17:00,
2013-01-03 20:22:00,31.6,28.6,30.22,North,350,1.0,3.0,88,0.00,,,0.00,0.0,meteohub,2013-01-04 01:22:00,
2013-01-03 20:27:00,31.6,28.6,30.23,North,350,1.0,3.0,88,0.00,,,0.00,0.0,meteohub,2013-01-04 01:27:00,
2013-01-03 20:32:00,31.5,28.4,30.23,ENE,78,0.0,3.0,88,0.00,,,0.00,0.0,meteohub,2013-01-04 01:32:00,
2013-01-03 20:37:00,31.3,28.2,30.22,ENE,78,1.0,2.0,88,0.00,,,0.00,0.0,meteohub,2013-01-04 01:37:00,
2013-01-03 20:42:00,31.5,28.4,30.22,NE,50,1.0,4.0,88,0.00,,,0.00,0.0,meteohub,2013-01-04 01:42:00,
2013-01-03 20:47:00,31.3,28.2,30.22,North,5,1.0,4.0,88,0.00,,,0.00,0.0,meteohub,2013-01-04 01:47:00,
2013-01-03 20:52:00,31.3,27.9,30.23,North,5,0.0,4.0,87,0.00,,,0.00,0.0,meteohub,2013-01-04 01:52:00,
2013-01-03 20:57:00,31.1,28.0,30.23,NNE,23,2.0,3.0,88,0.00,,,0.00,0.0,meteohub,2013-01-04 01:57:00,
2013-01-03 21:02:00,30.9,27.9,30.23,NNE,23,0.0,3.0,88,0.00,,,0.00,0.0,meteohub,2013-01-04 02:02:00,
2013-01-03 21:07:00,30.9,27.9,30.23,NNE,28,2.0,3.0,88,0.00,,,0.00,0.0,meteohub,2013-01-04 02:07:00,
2013-01-03 21:12:00,30.9,27.9,30.23,NNE,32,0.0,4.0,88,0.00,,,0.00,0.0,meteohub,2013-01-04 02:12:00,
2013-01-03 21:17:00,30.7,27.7,30.23,NNE,32,1.0,4.0,88,0.00,,,0.00,0.0,meteohub,2013-01-04 02:17:00,
2013-01-03 21:22:00,30.6,27.1,30.23,East,94,0.0,3.0,87,0.00,,,0.00,0.0,meteohub,2013-01-04 02:22:00,
2013-01-03 21:27:00,30.6,27.5,30.24,NE,54,0.0,5.0,88,0.00,,,0.00,0.0,meteohub,2013-01-04 02:27:00,
2013-01-03 21:32:00,30.4,27.0,30.24,NE,54,0.0,5.0,87,0.00,,,0.00,0.0,meteohub,2013-01-04 02:32:00,
2013-01-03 21:37:00,30.4,27.3,30.24,ESE,114,0.0,5.0,88,0.00,,,0.00,0.0,meteohub,2013-01-04 02:37:00,
2013-01-03 21:42:00,30.4,27.3,30.24,ESE,114,0.0,2.0,88,0.00,,,0.00,0.0,meteohub,2013-01-04 02:42:00,
2013-01-03 21:47:00,30.2,27.1,30.24,ESE,114,1.0,2.0,88,0.00,,,0.00,0.0,meteohub,2013-01-04 02:47:00,
2013-01-03 21:52:00,30.0,27.0,30.24,ESE,114,0.0,2.0,88,0.00,,,0.00,0.0,meteohub,2013-01-04 02:52:00,
2013-01-03 21:57:00,30.0,26.6,30.24,ESE,114,0.0,2.0,87,0.00,,,0.00,0.0,meteohub,2013-01-04 02:57:00,
2013-01-03 22:02:00,30.0,26.6,30.24,ESE,114,1.0,2.0,87,0.00,,,0.00,0.0,meteohub,2013-01-04 03:02:00,
2013-01-03 22:08:00,29.8,26.4,30.24,ESE,114,0.0,2.0,87,0.00,,,0.00,0.0,meteohub,2013-01-04 03:08:00,
2013-01-03 22:13:00,29.5,26.4,30.24,ESE,114,1.0,2.0,88,0.00,,,0.00,0.0,meteohub,2013-01-04 03:13:00,
2013-01-03 22:18:00,29.7,26.6,30.24,ESE,114,0.0,2.0,88,0.00,,,0.00,0.0,meteohub,2013-01-04 03:18:00,
2013-01-03 22:23:00,29.5,26.4,30.23,ESE,114,0.0,3.0,88,0.00,,,0.00,0.0,meteohub,2013-01-04 03:23:00,
2013-01-03 22:28:00,29.1,26.1,30.23,ESE,114,1.0,3.0,88,0.00,,,0.00,0.0,meteohub,2013-01-04 03:28:00,
2013-01-03 22:33:00,29.1,26.1,30.24,ESE,114,0.0,2.0,88,0.00,,,0.00,0.0,meteohub,2013-01-04 03:33:00,
2013-01-03 22:38:00,28.9,26.1,30.24,ESE,114,1.0,2.0,89,0.00,,,0.00,0.0,meteohub,2013-01-04 03:38:00,
2013-01-03 22:43:00,29.1,26.1,30.24,ESE,114,0.0,2.0,88,0.00,,,0.00,0.0,meteohub,2013-01-04 03:43:00,
2013-01-03 22:48:00,28.9,25.9,30.25,ESE,114,1.0,2.0,88,0.00,,,0.00,0.0,meteohub,2013-01-04 03:48:00,
2013-01-03 22:53:00,28.9,25.9,30.25,NE,47,1.0,2.0,88,0.00,,,0.00,0.0,meteohub,2013-01-04 03:53:00,
2013-01-03 22:58:00,28.9,25.5,30.25,NNE,29,3.0,3.0,87,0.00,,,0.00,0.0,meteohub,2013-01-04 03:58:00,
2013-01-03 23:04:00,28.9,25.3,30.25,NE,34,2.0,5.0,86,0.00,,,0.00,0.0,meteohub,2013-01-04 04:04:00,
2013-01-03 23:09:00,29.1,25.5,30.25,NE,49,0.0,5.0,86,0.00,,,0.00,0.0,meteohub,2013-01-04 04:09:00,
2013-01-03 23:14:00,28.9,25.0,30.24,NE,51,2.0,5.0,85,0.00,,,0.00,0.0,meteohub,2013-01-04 04:14:00,
2013-01-03 23:19:00,28.9,24.8,30.24,NE,52,0.0,4.0,84,0.00,,,0.00,0.0,meteohub,2013-01-04 04:19:00,
2013-01-03 23:24:00,28.8,24.8,30.25,ENE,68,1.0,4.0,85,0.00,,,0.00,0.0,meteohub,2013-01-04 04:24:00,
2013-01-03 23:29:00,28.6,24.6,30.25,NNE,17,2.0,4.0,85,0.00,,,0.00,0.0,meteohub,2013-01-04 04:29:00,
2013-01-03 23:34:00,28.8,24.6,30.25,North,355,1.0,5.0,84,0.00,,,0.00,0.0,meteohub,2013-01-04 04:34:00,
2013-01-03 23:39:00,28.8,24.6,30.26,NNE,26,0.0,5.0,84,0.00,,,0.00,0.0,meteohub,2013-01-04 04:39:00,
2013-01-03 23:44:00,28.6,24.6,30.27,NE,44,2.0,5.0,85,0.00,,,0.00,0.0,meteohub,2013-01-04 04:44:00,
2013-01-03 23:49:00,28.4,24.4,30.27,NE,45,1.0,4.0,85,0.00,,,0.00,0.0,meteohub,2013-01-04 04:49:00,
2013-01-03 23:54:00,28.6,24.1,30.27,NE,45,1.0,4.0,83,0.00,,,0.00,0.0,meteohub,2013-01-04 04:54:00,
2013-01-03 23:59:00,28.2,24.1,30.27,NE,45,0.0,4.0,84,0.00,,,0.00,0.0,meteohub,2013-01-04 04:59:00,